User: anonymous   Login
Location: Barnston
(51.8500°N, 0.4000°E)
Time: 21:03:41
(UTC+00:00)
Language:

Cosmos 494 Rocket - Orbit

View from above orbital plane
View from above orbital plane
View from above satellite
View from above satellite

Ground track
Ground track

The orbit data is extracted from the following two-line orbital elements,

1 06061U 72043B   24062.19745119  .00000370  00000-0  12242-3 0  9994
2 06061  74.0583 333.9769 0020572 211.9592 148.0318 14.41207398710852
Epoch (UTC): 02 March 2024 04:44:19
Eccentricity: 0.0020572
inclination: 74.0583°
perigee height: 740 km
apogee height: 769 km
right ascension of ascending node: 333.9769°
argument of perigee: 211.9592°
revolutions per day: 14.41207398
mean anomaly at epoch: 148.0318°
orbit number at epoch: 71085

The dashed part of the orbit path shows where the satellite is in the earth's shadow,  

DLR